Flag for India Weather past 2 weeks in Mumbai, Maharashtra, India

Now
82 °F

Broken clouds.


Feels Like: 94 °F
Forecast: 81 / 85 °F
Wind: 12 mph from Southwest

Location: Bombay / Santacruz

Current Time: Aug 2, 2014 at 10:34:22 AM

Latest Report: Aug 2, 2014 at 8:40 AM


Visibility: 1 mi

Pressure: 29.65 "Hg

Humidity: 94%

Dew point: 81 °F

Location of MumbaiLocation

Historic Weather in Mumbai — Graph

°F

Mumbai temperature yesterday

Maximum temperature yesterday: 88 °F (at 2:40 PM)
Minimum temperature yesterday: 79 °F (at 1:40 AM)
Average temperature yesterday: 82 °F

Past Weeks' High & Low Weather Summary

 TemperatureHumidityPressure
High88 °F (Jul 21, 11:40 AM)100% (Jul 21, 9:40 AM)29.80 "Hg (Jul 21, 9:40 AM)
Low77 °F (Jul 27, 2:40 PM)70% (Jul 26, 2:40 PM)29.56 "Hg (Jul 18, 5:40 PM)
Average83 °F89%29.65 "Hg
* Reported Jul 18 8:40 AM — Aug 2 8:40 AM, Mumbai, Weather by CustomWeather, © 2014

Note: Actual official high and low records may vary slightly from our data, if they occured in-between our weather recording intervals... More about our weather records

Advertising

Mumbai weather history for previous 24 hours

 ConditionsComfort  
Time TempWeatherWind HumidityBarometerVisibility
8:40 AM
Aug 2
82 °FBroken clouds.12 mph94%29.65 "Hg1 mi
7:40 AM82 °FBroken clouds.12 mph89%29.65 "Hg2 mi
6:40 AM81 °FPartly cloudy.8 mph94%29.62 "Hg2 mi
5:40 AM81 °FLight rain. Mostly cloudy.15 mph94%29.62 "Hg1 mi
4:40 AM81 °FMostly cloudy.9 mph94%29.59 "Hg1 mi
3:40 AM79 °FMostly cloudy.10 mph100%29.59 "Hg1 mi
2:40 AM79 °FMostly cloudy.9 mph100%29.59 "Hg1 mi
1:40 AM79 °FDrizzle. Mostly cloudy.8 mph100%29.62 "Hg1 mi
12:40 AM81 °FDrizzle. Mostly cloudy.12 mph94%29.62 "Hg1 mi
11:40 PM
Aug 1
81 °FMostly cloudy.9 mph94%29.65 "Hg1 mi
10:40 PM81 °FMostly cloudy.10 mph94%29.62 "Hg1 mi
9:40 PM82 °FPartly cloudy.10 mph89%29.62 "Hg1 mi
8:40 PM82 °FFog.15 mph89%29.62 "Hg1 mi
7:40 PM82 °FFog.13 mph89%29.59 "Hg1 mi
6:40 PM81 °FFog.15 mph94%29.59 "Hg1 mi
5:40 PM82 °FLight rain. More clouds than sun.14 mph89%29.56 "Hg1 mi
4:40 PM82 °FBroken clouds.12 mph84%29.56 "Hg2 mi
3:40 PM86 °FDrizzle. Broken clouds.12 mph84%29.59 "Hg2 mi
2:40 PM88 °FBroken clouds.9 mph75%29.59 "Hg2 mi
12:40 PM84 °FBroken clouds.9 mph89%29.62 "Hg1 mi
10:40 AM84 °FBroken clouds.9 mph89%29.62 "Hg2 mi
Weather by CustomWeather, © 2014

See weather overviewHow to use our weather pages